User: anonymous   Login
Location: Asheville, NC
(35.6000°N, 82.5500°W)
Time: 20:56:52
(UTC-05:00)
Language:

XW-2D - Orbit

View from above orbital plane
View from above orbital plane
View from above satellite
View from above satellite

Ground track
Ground track

The orbit data is extracted from the following two-line orbital elements,

1 40907U 15049J   18021.46735017  .00000693  00000-0  40410-4 0  9995
2 40907  97.4553  27.4052 0014679 170.1357 190.0167 15.15117719129280
Epoch (UTC): 21 January 2018 11:12:59
Eccentricity: 0.0014679
inclination: 97.4553°
perigee height: 510 km
apogee height: 531 km
right ascension of ascending node: 27.4052°
argument of perigee: 170.1357°
revolutions per day: 15.15117719
mean anomaly at epoch: 190.0167°
orbit number at epoch: 12928

The dashed part of the orbit path shows where the satellite is in the earth's shadow,  

DLR